TimeEDT,TemperatureF,Dew PointF,Humidity,Sea Level PressureIn,VisibilityMPH,Wind Direction,Wind SpeedMPH,Gust SpeedMPH,PrecipitationIn,Events,Conditions,WindDirDegrees,DateUTC
12:53 AM,73.0,66.9,81,30.20,10.0,North,3.5,-,N/A,,Scattered Clouds,10,2013-07-15 04:53:00
1:53 AM,71.1,66.9,87,30.22,10.0,Calm,Calm,-,N/A,,Mostly Cloudy,0,2013-07-15 05:53:00
2:53 AM,72.0,66.9,84,30.21,10.0,Calm,Calm,-,N/A,,Overcast,0,2013-07-15 06:53:00
3:53 AM,70.0,66.0,87,30.22,10.0,NNE,3.5,-,N/A,,Scattered Clouds,20,2013-07-15 07:53:00
4:53 AM,68.0,66.0,93,30.22,10.0,ENE,4.6,-,N/A,,Scattered Clouds,60,2013-07-15 08:53:00
5:53 AM,68.0,66.0,93,30.24,10.0,Calm,Calm,-,N/A,,Scattered Clouds,0,2013-07-15 09:53:00
6:53 AM,68.0,66.0,93,30.25,10.0,Calm,Calm,-,N/A,,Scattered Clouds,0,2013-07-15 10:53:00
7:53 AM,71.1,66.9,87,30.26,10.0,Calm,Calm,-,N/A,,Scattered Clouds,0,2013-07-15 11:53:00
8:53 AM,75.0,68.0,79,30.27,10.0,ENE,5.8,-,N/A,,Partly Cloudy,60,2013-07-15 12:53:00
9:53 AM,79.0,68.0,69,30.27,10.0,Calm,Calm,-,N/A,,Partly Cloudy,0,2013-07-15 13:53:00
10:53 AM,81.0,66.9,62,30.28,10.0,ENE,3.5,-,N/A,,Scattered Clouds,70,2013-07-15 14:53:00
11:53 AM,82.9,66.9,58,30.28,10.0,ESE,5.8,-,N/A,,Scattered Clouds,110,2013-07-15 15:53:00
12:53 PM,84.9,66.0,53,30.27,10.0,Variable,3.5,-,N/A,,Mostly Cloudy,0,2013-07-15 16:53:00
1:53 PM,84.9,66.9,55,30.27,10.0,East,4.6,-,N/A,,Mostly Cloudy,90,2013-07-15 17:53:00
2:53 PM,86.0,66.0,51,30.24,10.0,NNE,5.8,-,N/A,,Scattered Clouds,30,2013-07-15 18:53:00
3:53 PM,88.0,66.9,49,30.22,10.0,North,8.1,-,N/A,,Scattered Clouds,10,2013-07-15 19:53:00
4:53 PM,88.0,68.0,51,30.21,10.0,NE,6.9,-,N/A,,Scattered Clouds,50,2013-07-15 20:53:00
5:53 PM,88.0,66.9,49,30.20,10.0,NE,8.1,-,N/A,,Scattered Clouds,50,2013-07-15 21:53:00
6:53 PM,87.1,66.9,51,30.20,10.0,ENE,6.9,-,N/A,,Scattered Clouds,60,2013-07-15 22:53:00
7:53 PM,84.9,68.0,57,30.20,10.0,ENE,4.6,-,N/A,,Scattered Clouds,60,2013-07-15 23:53:00
8:53 PM,82.9,69.1,63,30.20,10.0,Calm,Calm,-,N/A,,Mostly Cloudy,0,2013-07-16 00:53:00
10:53 PM,80.1,69.1,69,30.24,10.0,Calm,Calm,-,N/A,,Mostly Cloudy,0,2013-07-16 02:53:00
11:53 PM,77.0,71.1,82,30.26,10.0,WSW,3.5,-,N/A,,Scattered Clouds,240,2013-07-16 03:53:00